Location: College Park
(38.9810°N, 76.9370°W)
Time: 16:02:14
(UTC-05:00)

ISS - Visible Passes

Search period start: 22 February 2019 00:00
Search period end: 04 March 2019 00:00
Orbit: 403 x 411 km, 51.6° (Epoch: 23 February)

Date Brightness Start Highest point End Pass type
(mag) Time Alt. Az. Time Alt. Az. Time Alt. Az.
22 Feb -1.9 05:58:35 10° SSW 06:01:30 30° SE 06:04:26 10° ENE visible
23 Feb -1.0 05:08:11 10° S 05:10:16 16° SE 05:12:21 10° E visible
24 Feb -3.8 05:51:59 11° SW 05:55:05 86° SE 05:58:22 10° NE visible
25 Feb -2.9 05:03:14 38° SSE 05:03:43 42° SE 05:06:49 10° ENE visible
26 Feb -0.5 04:14:19 14° E 04:14:19 14° E 04:14:58 10° E visible
26 Feb -3.1 05:47:03 21° W 05:48:47 37° NNW 05:51:52 10° NE visible
27 Feb -3.2 04:57:57 50° NNE 04:57:57 50° NNE 05:00:32 10° NE visible
28 Feb -0.4 04:08:44 12° ENE 04:08:44 12° ENE 04:09:03 10° ENE visible
28 Feb -2.1 05:41:26 17° NW 05:42:35 20° NNW 05:45:06 10° NNE visible
01 Mar -1.9 04:52:07 23° N 04:52:07 23° N 04:53:53 10° NE visible
02 Mar -1.5 05:35:24 12° NW 05:36:30 13° NNW 05:38:08 10° NNE visible
03 Mar -1.3 04:45:56 15° N 04:45:56 15° N 04:47:00 10° NNE visible
